Washington, NC

3:51 AM EDT on June 29, 2017 (GMT -0400)
Warren

Weather History for KOCW - April, 2013

Change the Weather History Date:

Monday, April 1, 2013

  Actual Average (KPGV) Record (KPGV)
Temperature  
Mean Temperature 66 °F -  
Max Temperature 73 °F 68 °F 87 °F (1938)
Min Temperature 58 °F 44 °F 29 °F (1965)
Growing Degree Days 16 (Base 50)    
Moisture  
Dew Point 48 °F    
Average Humidity 64    
Maximum Humidity 81    
Minimum Humidity 30    
Precipitation  
Precipitation 0.23 in - - ()
Sea Level Pressure  
Sea Level Pressure 29.85 in    
Wind  
Wind Speed 3 mph (WSW)    
Max Wind Speed 14 mph    
Max Gust Speed 17 mph    
Visibility 9 miles    
Events Rain    
Averages and records for this station are not official NWS values.
T = Trace of Precipitation, MM = Missing Value Source: NWS Daily Summary

Daily Weather History Graph

Daily Weather History Graph

Search for Another Location

Airport or City:

Trip Planner

Search our weather history database for the weather conditions in past years. The results will help you decide how hot, cold, wet, or windy it might be!

Date:

Astronomy

Apr. 01, 2013 Rise Set
Actual Time 6:54 AM EDT 7:30 PM EDT
Civil Twilight 6:28 AM EDT 7:55 PM EDT
Nautical Twilight 5:58 AM EDT 8:26 PM EDT
Astronomical Twilight 5:27 AM EDT 8:56 PM EDT
Moon 12:27 AM EDT (4/1) 10:47 AM EDT (4/1)
Length of Visible Light 13h 26m
Length of Day
12h 35m
Waning Gibbous, 67% of the Moon is Illuminated
Apr 1
Waning Gibbous
Apr 3
Last Quarter
Apr 10
New
Apr 18
First Quarter
Apr 25
Full

Hourly Weather History & Observations

Time (EDT) Temp. Dew Point Humidity Pressure Visibility Wind Dir Wind Speed Gust Speed Precip Events Conditions
12:15 AM 59.2 °F 53.2 °F 81% 29.88 in 7.0 mi Calm Calm - 0.03 in Rain Light Rain
12:35 AM 58.1 °F 52.0 °F 80% 29.88 in 10.0 mi Calm Calm - 0.03 in   Drizzle
12:55 AM 58.1 °F 52.0 °F 80% 29.88 in 10.0 mi Calm Calm - 0.03 in   Overcast
1:15 AM 58.1 °F 52.0 °F 80% 29.87 in 10.0 mi Calm Calm - N/A   Overcast
1:35 AM 58.1 °F 52.0 °F 80% 29.87 in 7.0 mi Calm Calm - N/A   Overcast
1:55 AM 58.1 °F 52.0 °F 80% 29.87 in 7.0 mi Calm Calm - N/A   Overcast
2:15 AM 58.1 °F 52.0 °F 80% 29.86 in 10.0 mi SSE 3.5 mph - N/A   Overcast
2:35 AM 58.1 °F 52.0 °F 80% 29.86 in 10.0 mi SSE 3.5 mph - N/A   Overcast
2:55 AM 58.1 °F 52.0 °F 80% 29.86 in 10.0 mi South 3.5 mph - N/A   Mostly Cloudy
3:15 AM 58.1 °F 52.0 °F 80% 29.85 in 10.0 mi SSE 3.5 mph - N/A   Scattered Clouds
3:35 AM 58.1 °F 52.0 °F 80% 29.84 in 7.0 mi South 4.6 mph - N/A   Clear
3:55 AM 58.1 °F 52.0 °F 80% 29.83 in 5.0 mi Calm Calm - N/A   Haze
4:15 AM 58.1 °F 52.0 °F 80% 29.83 in 5.0 mi Calm Calm - N/A   Haze
4:35 AM 58.1 °F 52.0 °F 80% 29.83 in 5.0 mi SSW 3.5 mph - N/A   Haze
4:55 AM 58.1 °F 52.0 °F 80% 29.82 in 5.0 mi SSW 3.5 mph - N/A   Haze
5:35 AM 58.1 °F 52.0 °F 80% 29.83 in 7.0 mi SW 3.5 mph - N/A Rain Light Rain
5:55 AM 58.1 °F 52.0 °F 80% 29.83 in 5.0 mi WSW 4.6 mph - 0.03 in Rain Rain
6:15 AM 58.1 °F 52.0 °F 80% 29.84 in 5.0 mi WSW 4.6 mph - 0.04 in Rain Rain
6:35 AM 58.1 °F 52.0 °F 80% 29.84 in 7.0 mi WSW 6.9 mph - 0.06 in Rain Light Rain
6:55 AM 58.1 °F 52.0 °F 80% 29.85 in 5.0 mi SW 6.9 mph - 0.09 in Rain Rain
7:15 AM 58.1 °F 52.0 °F 80% 29.85 in 5.0 mi West 3.5 mph - 0.03 in Rain Rain
7:35 AM 58.1 °F 52.0 °F 80% 29.85 in 5.0 mi WNW 3.5 mph - 0.06 in Rain Light Rain
7:55 AM 58.1 °F 52.0 °F 80% 29.86 in 5.0 mi Calm Calm - 0.07 in Rain Light Rain
8:15 AM 58.1 °F 52.0 °F 80% 29.85 in 7.0 mi NNW 8.1 mph - N/A Rain Light Rain
8:35 AM 58.1 °F 52.0 °F 80% 29.85 in 10.0 mi NNW 6.9 mph - 0.01 in   Mostly Cloudy
8:55 AM 58.6 °F 52.7 °F 81% 29.83 in 10.0 mi North 5.8 mph - 0.01 in   Scattered Clouds
9:15 AM 60.4 °F 54.5 °F 81% 29.86 in 10.0 mi West 5.8 mph - N/A   Scattered Clouds
9:35 AM 60.4 °F 54.5 °F 81% 29.88 in 10.0 mi WSW 3.5 mph - N/A   Mostly Cloudy
9:55 AM 60.4 °F 54.5 °F 81% 29.89 in 10.0 mi West 3.5 mph - N/A   Overcast
10:15 AM 60.4 °F 54.5 °F 81% 29.88 in 10.0 mi Calm Calm - N/A   Overcast
10:35 AM 60.1 °F 54.0 °F 80% 29.89 in 10.0 mi Calm Calm - N/A   Overcast
10:55 AM 60.4 °F 54.5 °F 81% 29.89 in 10.0 mi Calm Calm - N/A   Mostly Cloudy
11:15 AM 60.4 °F 54.5 °F 81% 29.89 in 10.0 mi Calm Calm - N/A   Overcast
11:35 AM 60.4 °F 54.5 °F 81% 29.88 in 10.0 mi Calm Calm - N/A   Mostly Cloudy
11:55 AM 60.4 °F 53.1 °F 77% 29.88 in 10.0 mi West 4.6 mph - N/A   Scattered Clouds
12:15 PM 60.8 °F 49.5 °F 66% 29.87 in 10.0 mi NW 4.6 mph - N/A   Clear
12:35 PM 60.8 °F 48.0 °F 63% 29.87 in 10.0 mi NW 3.5 mph - N/A   Scattered Clouds
12:55 PM 62.1 °F 48.2 °F 60% 29.86 in 10.0 mi Calm Calm - N/A   Clear
1:15 PM 63.0 °F 47.8 °F 58% 29.86 in 10.0 mi SW 6.9 mph - N/A   Scattered Clouds
1:35 PM 63.0 °F 45.9 °F 54% 29.86 in 10.0 mi SW 6.9 mph - N/A   Scattered Clouds
1:55 PM 63.7 °F 46.2 °F 53% 29.85 in 10.0 mi SW 8.1 mph - N/A   Scattered Clouds
2:15 PM 65.3 °F 46.9 °F 51% 29.84 in 10.0 mi West 6.9 mph - N/A   Scattered Clouds
2:35 PM 65.5 °F 43.9 °F 46% 29.83 in 10.0 mi WSW 9.2 mph - N/A   Scattered Clouds
2:55 PM 65.8 °F 43.9 °F 45% 29.82 in 10.0 mi SW 5.8 mph - N/A   Scattered Clouds
3:15 PM 67.5 °F 42.6 °F 41% 29.81 in 10.0 mi SSW 8.1 mph - N/A   Scattered Clouds
3:35 PM 68.0 °F 41.9 °F 39% 29.81 in 10.0 mi SW 10.4 mph - N/A   Clear
3:55 PM 70.2 °F 41.5 °F 35% 29.81 in 10.0 mi SW 11.5 mph 16.1 mph N/A   Clear
4:15 PM 70.7 °F 41.4 °F 35% 29.81 in 10.0 mi SW 8.1 mph - N/A   Clear
4:35 PM 70.7 °F 41.7 °F 35% 29.81 in 10.0 mi SW 13.8 mph 17.3 mph N/A   Clear
4:55 PM 71.1 °F 41.2 °F 34% 29.81 in 10.0 mi WSW 5.8 mph - N/A   Clear
5:15 PM 73.0 °F 42.3 °F 33% 29.81 in 10.0 mi WSW 11.5 mph - N/A   Clear
5:35 PM 73.0 °F 40.1 °F 30% 29.81 in 10.0 mi SW 11.5 mph - N/A   Clear
5:55 PM 72.9 °F 40.6 °F 31% 29.81 in 10.0 mi SW 13.8 mph - N/A   Clear
6:15 PM 72.9 °F 39.9 °F 30% 29.81 in 10.0 mi SW 9.2 mph - N/A   Clear
6:35 PM 70.7 °F 37.4 °F 30% 29.81 in 10.0 mi WSW 5.8 mph - N/A   Clear
6:55 PM 68.2 °F 38.8 °F 34% 29.81 in 10.0 mi SW 6.9 mph - N/A   Clear
7:15 PM 67.5 °F 39.6 °F 36% 29.82 in 10.0 mi SW 5.8 mph - N/A   Clear
7:35 PM 64.8 °F 42.3 °F 44% 29.83 in 10.0 mi WSW 3.5 mph - N/A   Clear
7:55 PM 63.0 °F 45.7 °F 53% 29.83 in 10.0 mi Calm Calm - N/A   Clear
8:15 PM 62.6 °F 47.7 °F 58% 29.84 in 7.0 mi Calm Calm - N/A   Clear
8:35 PM 60.4 °F 47.3 °F 62% 29.84 in 10.0 mi Calm Calm - N/A   Scattered Clouds
8:55 PM 58.5 °F 47.5 °F 67% 29.85 in 10.0 mi Calm Calm - N/A   Clear
9:15 PM 58.1 °F 48.2 °F 70% 29.86 in 10.0 mi Calm Calm - N/A   Clear
9:35 PM 58.6 °F 47.1 °F 66% 29.87 in 10.0 mi Calm Calm - N/A   Clear
9:55 PM 60.4 °F 41.9 °F 50% 29.88 in 10.0 mi NNW 5.8 mph - N/A   Clear
10:15 PM 60.4 °F 41.5 °F 50% 29.89 in 10.0 mi NNW 4.6 mph - N/A   Clear
10:35 PM 58.1 °F 42.6 °F 56% 29.90 in 10.0 mi North 4.6 mph - N/A   Clear
10:55 PM 58.1 °F 41.5 °F 54% 29.91 in 10.0 mi North 3.5 mph - N/A   Scattered Clouds
11:15 PM 58.3 °F 41.2 °F 53% 29.91 in 10.0 mi NNW 4.6 mph - N/A   Mostly Cloudy
11:35 PM 60.4 °F 41.2 °F 49% 29.92 in 10.0 mi NNW 4.6 mph - N/A   Overcast
11:55 PM 60.4 °F 40.5 °F 48% 29.92 in 10.0 mi North 6.9 mph - N/A   Overcast